Regional Weather Roundup
Issued by NWS

Current Version | Previous Version | Text Only | Print | Product List | Glossary On
Versions: 1 2 3 4 5 6 7 8 9 10 11 12 13 14 15 16 17 18 19 20 21 22 23 24 25 26 27 28 29 30 31 32 33 34 35 36 37 38 39 40 41 42 43 44 45 46 47 48 49 50
891
ASUS44 KOUN 190610
RWROK

WEATHER ROUNDUP FOR OKLAHOMA
NATIONAL WEATHER SERVICE NORMAN OK
100 AM CDT MON AUG 19 2019

NOTE: "FAIR" INDICATES FEW OR NO CLOUDS BELOW 12,000 FEET WITH NO
      SIGNIFICANT WEATHER AND/OR OBSTRUCTIONS TO VISIBILITY.

OKZ001>007-009>012-014-015-017-190700-
NORTHWEST OKLAHOMA AND THE PANHANDLE

CITY           SKY/WX    TMP DP  RH WIND       PRES   REMARKS
GAGE           CLEAR     83  67  58 S13       29.93R
6HR MIN TEMP:  78; 6HR MAX TEMP:  96;

GUYMON         CLEAR     77  65  66 SE6       29.97R
ENID/WOODRING  RAIN      79  73  83 SE6       29.89S VSB<1/4
$$

OKZ016-021>023-033>039-044-045-190700-
SOUTHWEST OKLAHOMA

CITY           SKY/WX    TMP DP  RH WIND       PRES   REMARKS
LAWTON/REGL    CLEAR     86  68  54 S7        29.90R
6HR MIN TEMP:  86; 6HR MAX TEMP:  99;

LAWTON/FT SILL PTCLDY    83  72  69 S7        29.89R
FREDERICK      CLEAR     88  67  49 SE9       29.87R HX  91
CLINTON        CLEAR     83  66  56 SE14      29.94R
HOBART         CLEAR     85  67  54 S10       29.92R
ALTUS AFB      CLEAR     81  67  61 SE10      29.89R
$$

OKZ018>020-024>031-190700-
CENTRAL OKLAHOMA

CITY           SKY/WX    TMP DP  RH WIND       PRES   REMARKS
OKLAHOMA CITY  MOCLDY    82  71  69 S13       29.91S
6HR MIN TEMP:  82; 6HR MAX TEMP:  94;

OKC/WILEY POST CLEAR     86  69  56 S16G23    29.91R HX  90
OKC/TINKER AFB PTCLDY    82  70  67 S10       29.92R
STILLWATER     MOCLDY    84  73  69 S7        29.90S HX  90
GUTHRIE        CLEAR     84  70  62 S10       29.90S
$$

OKZ008-013-054>072-190700-
NORTHEAST OKLAHOMA

CITY           SKY/WX    TMP DP  RH WIND       PRES   REMARKS
TULSA          MOCLDY    79  74  84 E6        29.90S
6HR MIN TEMP:  79; 6HR MAX TEMP:  89;

TULSA/JONES    PTCLDY    82  74  76 S3        29.91S
PONCA CITY     MOCLDY    81  76  84 SE9       29.91R
BARTLESVILLE   CLEAR     78  74  87 CALM      29.93R
MUSKOGEE       PTCLDY    77  71  82 S6        29.93R
$$

OKZ032-040>043-046>053-073>077-190700-
SOUTH CENTRAL/SOUTHEAST OKLAHOMA

CITY           SKY/WX    TMP DP  RH WIND       PRES   REMARKS
ARDMORE/DWNTWN CLEAR     82  68  61 SE5       29.91R
MCALESTER      MOCLDY    84  70  62 CALM      29.93R
$$





USA.gov is the U.S. government's official web portal to all federal, state and local government web resources and services.